Time,TemperatureF,DewpointF,PressureIn,WindDirection,WindDirectionDegrees,WindSpeedMPH,WindSpeedGustMPH,Humidity,HourlyPrecipIn,Conditions,Clouds,dailyrainin,SoftwareType,DateUTC
2013-10-07 00:00:00,53.6,53.3,29.73,South,180,1.7,-999.0,99,-99.99,,,0.00,Acu-Link.com,2013-10-07 04:00:00,
2013-10-07 00:16:00,53.4,53.1,29.72,South,180,1.7,-999.0,99,-99.99,,,0.05,Acu-Link.com,2013-10-07 04:16:00,
2013-10-07 00:31:00,53.2,52.9,29.74,West,270,2.2,-999.0,99,-99.99,,,0.12,Acu-Link.com,2013-10-07 04:31:00,
2013-10-07 00:46:00,53.2,52.9,29.74,SE,135,2.7,-999.0,99,-99.99,,,0.16,Acu-Link.com,2013-10-07 04:46:00,
2013-10-07 01:01:00,53.4,53.1,29.74,SW,225,3.7,-999.0,99,-99.99,,,0.17,Acu-Link.com,2013-10-07 05:01:00,
2013-10-07 01:16:00,53.6,53.3,29.74,SE,135,2.7,-999.0,99,-99.99,,,0.17,Acu-Link.com,2013-10-07 05:16:00,
2013-10-07 01:32:00,53.8,53.5,29.74,South,180,3.7,-999.0,99,-99.99,,,0.17,Acu-Link.com,2013-10-07 05:32:00,
2013-10-07 01:47:00,53.8,53.5,29.75,NW,315,2.2,-999.0,99,-99.99,,,0.17,Acu-Link.com,2013-10-07 05:47:00,
2013-10-07 02:02:00,53.8,53.5,29.74,ESE,112,2.2,-999.0,99,-99.99,,,0.17,Acu-Link.com,2013-10-07 06:02:00,
2013-10-07 02:19:00,53.8,53.5,29.75,SW,225,2.2,-999.0,99,-99.99,,,0.17,Acu-Link.com,2013-10-07 06:19:00,
2013-10-07 02:34:00,53.8,53.5,29.75,East,90,4.7,-999.0,99,-99.99,,,0.17,Acu-Link.com,2013-10-07 06:34:00,
2013-10-07 02:49:00,53.6,53.3,29.76,SW,225,2.7,-999.0,99,-99.99,,,0.17,Acu-Link.com,2013-10-07 06:49:00,
2013-10-07 03:05:00,53.6,53.3,29.76,North,0,1.7,-999.0,99,-99.99,,,0.17,Acu-Link.com,2013-10-07 07:05:00,
2013-10-07 03:20:00,53.6,53.3,29.76,ESE,112,1.1,-999.0,99,-99.99,,,0.17,Acu-Link.com,2013-10-07 07:20:00,
2013-10-07 03:38:00,53.4,53.1,29.75,East,90,1.1,-999.0,99,-99.99,,,0.17,Acu-Link.com,2013-10-07 07:38:00,
2013-10-07 03:53:00,53.2,52.9,29.75,WNW,292,1.1,-999.0,99,-99.99,,,0.17,Acu-Link.com,2013-10-07 07:53:00,
2013-10-07 04:08:00,52.7,52.4,29.74,West,270,1.1,-999.0,99,-99.99,,,0.17,Acu-Link.com,2013-10-07 08:08:00,
2013-10-07 04:23:00,52.7,52.4,29.74,NE,45,1.7,-999.0,99,-99.99,,,0.17,Acu-Link.com,2013-10-07 08:23:00,
2013-10-07 04:38:00,52.3,52.0,29.74,South,180,0.0,-999.0,99,-99.99,,,0.17,Acu-Link.com,2013-10-07 08:38:00,
2013-10-07 04:54:00,52.0,51.7,29.74,West,270,1.1,-999.0,99,-99.99,,,0.17,Acu-Link.com,2013-10-07 08:54:00,
2013-10-07 05:10:00,51.6,51.3,29.74,ESE,112,0.0,-999.0,99,-99.99,,,0.17,Acu-Link.com,2013-10-07 09:10:00,
2013-10-07 05:25:00,51.1,50.8,29.74,NNW,337,0.0,-999.0,99,-99.99,,,0.17,Acu-Link.com,2013-10-07 09:25:00,
2013-10-07 05:40:00,47.5,47.2,29.76,SSE,157,0.0,-999.0,99,-99.99,,,0.17,Acu-Link.com,2013-10-07 09:40:00,
2013-10-07 05:55:00,46.8,46.5,29.77,West,270,0.0,-999.0,99,-99.99,,,0.17,Acu-Link.com,2013-10-07 09:55:00,
2013-10-07 06:10:00,47.3,47.0,29.77,South,180,0.0,-999.0,99,-99.99,,,0.17,Acu-Link.com,2013-10-07 10:10:00,
2013-10-07 06:26:00,46.9,46.6,29.77,SSW,202,0.0,-999.0,99,-99.99,,,0.17,Acu-Link.com,2013-10-07 10:26:00,
2013-10-07 06:41:00,46.4,46.1,29.78,SE,135,0.0,-999.0,99,-99.99,,,0.17,Acu-Link.com,2013-10-07 10:41:00,
2013-10-07 06:56:00,46.0,45.7,29.79,SE,135,0.0,-999.0,99,-99.99,,,0.17,Acu-Link.com,2013-10-07 10:56:00,
2013-10-07 07:11:00,45.9,45.6,29.78,SE,135,0.0,-999.0,99,-99.99,,,0.17,Acu-Link.com,2013-10-07 11:11:00,
2013-10-07 07:26:00,46.0,45.7,29.79,NW,315,1.7,-999.0,99,-99.99,,,0.17,Acu-Link.com,2013-10-07 11:26:00,
2013-10-07 07:42:00,46.0,45.7,29.80,ESE,112,0.0,-999.0,99,-99.99,,,0.18,Acu-Link.com,2013-10-07 11:42:00,
2013-10-07 07:57:00,45.9,45.6,29.80,SE,135,1.1,-999.0,99,-99.99,,,0.18,Acu-Link.com,2013-10-07 11:57:00,
2013-10-07 08:12:00,46.4,46.1,29.81,NNW,337,1.7,-999.0,99,-99.99,,,0.18,Acu-Link.com,2013-10-07 12:12:00,
2013-10-07 08:27:00,47.5,47.2,29.82,SSE,157,0.0,-999.0,99,-99.99,,,0.18,Acu-Link.com,2013-10-07 12:27:00,
2013-10-07 08:43:00,48.0,47.7,29.83,SE,135,2.2,-999.0,99,-99.99,,,0.18,Acu-Link.com,2013-10-07 12:43:00,
2013-10-07 08:58:00,48.7,48.4,29.84,SSW,202,3.2,-999.0,99,-99.99,,,0.18,Acu-Link.com,2013-10-07 12:58:00,
2013-10-07 09:13:00,49.5,49.2,29.85,NE,45,2.2,-999.0,99,-99.99,,,0.18,Acu-Link.com,2013-10-07 13:13:00,
2013-10-07 09:28:00,50.2,49.4,29.85,South,180,2.2,-999.0,97,-99.99,,,0.18,Acu-Link.com,2013-10-07 13:28:00,
2013-10-07 09:43:00,52.5,49.4,29.85,NNW,337,1.7,-999.0,89,-99.99,,,0.18,Acu-Link.com,2013-10-07 13:43:00,
2013-10-07 09:59:00,55.8,51.4,29.86,NNW,337,4.2,-999.0,85,-99.99,,,0.18,Acu-Link.com,2013-10-07 13:59:00,
2013-10-07 10:14:00,56.7,51.3,29.86,NNE,22,1.7,-999.0,82,-99.99,,,0.18,Acu-Link.com,2013-10-07 14:14:00,
2013-10-07 10:29:00,57.9,51.1,29.86,ESE,112,2.2,-999.0,78,-99.99,,,0.18,Acu-Link.com,2013-10-07 14:29:00,
2013-10-07 10:44:00,59.0,51.8,29.86,SE,135,4.2,-999.0,77,-99.99,,,0.18,Acu-Link.com,2013-10-07 14:44:00,
2013-10-07 10:59:00,60.3,52.3,29.87,SE,135,1.7,-999.0,75,-99.99,,,0.18,Acu-Link.com,2013-10-07 14:59:00,
2013-10-07 11:15:00,59.7,50.7,29.87,North,0,3.2,-999.0,72,-99.99,,,0.18,Acu-Link.com,2013-10-07 15:15:00,
2013-10-07 11:30:00,62.1,51.0,29.87,West,270,2.7,-999.0,67,-99.99,,,0.18,Acu-Link.com,2013-10-07 15:30:00,
2013-10-07 11:45:00,61.2,50.6,29.87,ESE,112,1.7,-999.0,68,-99.99,,,0.18,Acu-Link.com,2013-10-07 15:45:00,
2013-10-07 12:00:00,60.1,49.9,29.88,SW,225,3.2,-999.0,69,-99.99,,,0.18,Acu-Link.com,2013-10-07 16:00:00,
2013-10-07 12:15:00,59.2,49.0,29.88,West,270,3.2,-999.0,69,-99.99,,,0.18,Acu-Link.com,2013-10-07 16:15:00,
2013-10-07 12:31:00,61.2,50.6,29.88,SSW,202,2.2,-999.0,68,-99.99,,,0.18,Acu-Link.com,2013-10-07 16:31:00,
2013-10-07 12:46:00,63.7,50.9,29.89,NNW,337,4.7,-999.0,63,-99.99,,,0.18,Acu-Link.com,2013-10-07 16:46:00,
2013-10-07 13:01:00,64.6,50.8,29.88,ENE,67,1.7,-999.0,61,-99.99,,,0.18,Acu-Link.com,2013-10-07 17:01:00,
2013-10-07 13:16:00,64.6,50.4,29.88,SW,225,4.2,-999.0,60,-99.99,,,0.18,Acu-Link.com,2013-10-07 17:16:00,
2013-10-07 13:32:00,64.0,50.7,29.88,NNE,22,2.2,-999.0,62,-99.99,,,0.18,Acu-Link.com,2013-10-07 17:32:00,
2013-10-07 13:47:00,65.1,50.0,29.87,NNE,22,0.0,-999.0,58,-99.99,,,0.18,Acu-Link.com,2013-10-07 17:47:00,
2013-10-07 14:02:00,64.9,50.2,29.87,NNE,22,2.2,-999.0,59,-99.99,,,0.18,Acu-Link.com,2013-10-07 18:02:00,
2013-10-07 14:17:00,67.3,51.1,29.86,WSW,247,3.2,-999.0,56,-99.99,,,0.18,Acu-Link.com,2013-10-07 18:17:00,
2013-10-07 14:32:00,67.5,52.2,29.86,SW,225,3.7,-999.0,58,-99.99,,,0.18,Acu-Link.com,2013-10-07 18:32:00,
2013-10-07 14:48:00,68.4,52.1,29.86,SE,135,2.7,-999.0,56,-99.99,,,0.18,Acu-Link.com,2013-10-07 18:48:00,
2013-10-07 15:03:00,69.3,50.4,29.86,ESE,112,2.7,-999.0,51,-99.99,,,0.18,Acu-Link.com,2013-10-07 19:03:00,
2013-10-07 15:18:00,66.7,48.5,29.86,ENE,67,5.3,-999.0,52,-99.99,,,0.18,Acu-Link.com,2013-10-07 19:18:00,
2013-10-07 15:33:00,67.8,51.0,29.85,ESE,112,2.7,-999.0,55,-99.99,,,0.18,Acu-Link.com,2013-10-07 19:33:00,
2013-10-07 15:48:00,69.8,50.8,29.86,WNW,292,1.7,-999.0,51,-99.99,,,0.18,Acu-Link.com,2013-10-07 19:48:00,
2013-10-07 16:04:00,67.5,50.8,29.86,SW,225,1.1,-999.0,55,-99.99,,,0.18,Acu-Link.com,2013-10-07 20:04:00,
2013-10-07 16:19:00,65.5,47.4,29.86,ESE,112,3.2,-999.0,52,-99.99,,,0.18,Acu-Link.com,2013-10-07 20:19:00,
2013-10-07 16:34:00,68.4,51.1,29.87,WNW,292,2.2,-999.0,54,-99.99,,,0.18,Acu-Link.com,2013-10-07 20:34:00,
2013-10-07 16:49:00,68.7,49.3,29.87,SSE,157,2.2,-999.0,50,-99.99,,,0.18,Acu-Link.com,2013-10-07 20:49:00,
2013-10-07 17:04:00,71.2,48.8,29.87,SE,135,3.2,-999.0,45,-99.99,,,0.18,Acu-Link.com,2013-10-07 21:04:00,
2013-10-07 17:20:00,65.3,47.2,29.87,South,180,1.7,-999.0,52,-99.99,,,0.18,Acu-Link.com,2013-10-07 21:20:00,
2013-10-07 17:35:00,67.3,49.1,29.87,NW,315,1.7,-999.0,52,-99.99,,,0.18,Acu-Link.com,2013-10-07 21:35:00,
2013-10-07 17:50:00,67.6,47.8,29.87,WNW,292,2.2,-999.0,49,-99.99,,,0.18,Acu-Link.com,2013-10-07 21:50:00,
2013-10-07 18:05:00,66.7,48.5,29.88,West,270,2.7,-999.0,52,-99.99,,,0.18,Acu-Link.com,2013-10-07 22:05:00,
2013-10-07 18:20:00,65.8,47.2,29.88,South,180,2.2,-999.0,51,-99.99,,,0.18,Acu-Link.com,2013-10-07 22:20:00,
2013-10-07 18:36:00,65.5,47.4,29.89,NE,45,1.7,-999.0,52,-99.99,,,0.18,Acu-Link.com,2013-10-07 22:36:00,
2013-10-07 18:51:00,61.9,48.3,29.90,WNW,292,2.2,-999.0,61,-99.99,,,0.18,Acu-Link.com,2013-10-07 22:51:00,
2013-10-07 19:06:00,59.7,47.1,29.90,SW,225,1.7,-999.0,63,-99.99,,,0.18,Acu-Link.com,2013-10-07 23:06:00,
2013-10-07 19:21:00,58.5,47.6,29.91,NNW,337,0.0,-999.0,67,-99.99,,,0.18,Acu-Link.com,2013-10-07 23:21:00,
2013-10-07 19:36:00,56.7,47.4,29.92,SE,135,0.0,-999.0,71,-99.99,,,0.18,Acu-Link.com,2013-10-07 23:36:00,
2013-10-07 19:51:00,55.6,46.7,29.93,East,90,0.0,-999.0,72,-99.99,,,0.18,Acu-Link.com,2013-10-07 23:51:00,
2013-10-07 20:07:00,54.7,46.9,29.94,SSW,202,0.0,-999.0,75,-99.99,,,0.18,Acu-Link.com,2013-10-08 00:07:00,
2013-10-07 20:22:00,53.8,47.1,29.94,SSE,157,0.0,-999.0,78,-99.99,,,0.18,Acu-Link.com,2013-10-08 00:22:00,
2013-10-07 20:37:00,53.1,46.8,29.95,South,180,0.0,-999.0,79,-99.99,,,0.18,Acu-Link.com,2013-10-08 00:37:00,
2013-10-07 20:52:00,52.9,47.2,29.96,South,180,0.0,-999.0,81,-99.99,,,0.18,Acu-Link.com,2013-10-08 00:52:00,
2013-10-07 21:07:00,52.0,46.7,29.96,WNW,292,0.0,-999.0,82,-99.99,,,0.18,Acu-Link.com,2013-10-08 01:07:00,
2013-10-07 21:23:00,51.6,46.6,29.97,South,180,0.0,-999.0,83,-99.99,,,0.18,Acu-Link.com,2013-10-08 01:23:00,
2013-10-07 21:38:00,51.6,46.6,29.97,South,180,0.0,-999.0,83,-99.99,,,0.18,Acu-Link.com,2013-10-08 01:38:00,
2013-10-07 21:53:00,51.4,46.1,29.98,NNW,337,0.0,-999.0,82,-99.99,,,0.18,Acu-Link.com,2013-10-08 01:53:00,
2013-10-07 22:08:00,50.9,46.6,29.99,ESE,112,0.0,-999.0,85,-99.99,,,0.18,Acu-Link.com,2013-10-08 02:08:00,
2013-10-07 22:23:00,50.4,46.7,29.99,ESE,112,0.0,-999.0,87,-99.99,,,0.18,Acu-Link.com,2013-10-08 02:23:00,
2013-10-07 22:38:00,49.8,46.7,29.99,ENE,67,0.0,-999.0,89,-99.99,,,0.18,Acu-Link.com,2013-10-08 02:38:00,
2013-10-07 22:54:00,49.3,46.5,30.00,ENE,67,0.0,-999.0,90,-99.99,,,0.18,Acu-Link.com,2013-10-08 02:54:00,
2013-10-07 23:09:00,48.6,46.4,30.00,ESE,112,0.0,-999.0,92,-99.99,,,0.18,Acu-Link.com,2013-10-08 03:09:00,
2013-10-07 23:24:00,47.7,45.2,30.00,SSE,157,0.0,-999.0,91,-99.99,,,0.18,Acu-Link.com,2013-10-08 03:24:00,
2013-10-07 23:39:00,47.3,45.9,30.01,ESE,112,0.0,-999.0,95,-99.99,,,0.18,Acu-Link.com,2013-10-08 03:39:00,
2013-10-07 23:54:00,46.8,44.9,30.01,SE,135,0.0,-999.0,93,-99.99,,,0.18,Acu-Link.com,2013-10-08 03:54:00,